Hourly Data Report for August 10, 2022

ST-JOVITE
QUEBEC
Current Station Operator: ECCC - MSC

46°04'49.000" N
74°33'21.000" W
238.50 m
703GDKB
71376
WJT

Download Data

Hourly Data (August 2022)
Hourly Data Report for August 10, 2022
TIME
LST
Temp Definition
°C
Dew Point Definition
°C
Rel Hum Definition
%
Precip. Amount Definition
mm

Wind Dir Definition
10's deg

Wind Spd Definition
km/h
Visibility Definition
km
Stn Press Definition
kPa
Hmdx Definition


Wind Chill Definition


Weather Definition


00:00 15.6 LegendMM LegendMM 0.0   0   99.02     LegendNANA
01:00 15.6 LegendMM LegendMM 0.0   0   99.01     LegendNANA
02:00 15.5 LegendMM LegendMM 0.0   0   99.03     LegendNANA
03:00 15.2 LegendMM LegendMM 0.0   0   99.04     LegendNANA
04:00 15.2 LegendMM LegendMM 0.0   0   99.04     LegendNANA
05:00 15.1 LegendMM LegendMM 0.0   0   99.06     LegendNANA
06:00 15.5 LegendMM LegendMM 0.0   0   99.09     LegendNANA
07:00 15.9 LegendMM LegendMM 0.0   0   99.12     LegendNANA
08:00 16.7 LegendMM LegendMM 0.0 25 2   99.12     LegendNANA
09:00 18.2 18.1 99 0.0 22 3   99.07     LegendNANA
10:00 19.2 18.5 96 0.0 23 2   99.03     LegendNANA
11:00 21.0 19.1 89 0.0 25 4   99.00 28   LegendNANA
12:00 22.9 16.4 67 0.0 24 5   98.95 28   LegendNANA
13:00 21.3 18.2 82 0.0 24 3   98.91 27   LegendNANA
14:00 23.3 16.5 66 0.0 20 5   98.85 28   LegendNANA
15:00 23.0 17.0 69 0.0 18 6   98.80 28   LegendNANA
16:00 23.7 18.0 70 0.0 23 7   98.73 30   LegendNANA
17:00 22.5 17.1 72 0.0 23 4   98.66 28   LegendNANA
18:00 21.2 17.1 78 0.0 21 4   98.64 27   LegendNANA
19:00 19.0 17.5 91 0.0 0 1   98.61     LegendNANA
20:00 17.0 17.0 100 0.0   0   98.65     LegendNANA
21:00 16.1 LegendMM LegendMM 0.0 0 1   98.65     LegendNANA
22:00 15.6 LegendMM LegendMM 0.0   0   98.62     LegendNANA
23:00 14.8 LegendMM LegendMM 0.0   0   98.59     LegendNANA

Notes on Data Quality.

Legend

  • E = Estimated
  • M = Missing
  • NA = Not Available*
  • [empty] = Indicates an unobserved value
Date modified: